OBJECT R, 57181

Orbit data source: Space-Track

You're viewing an Uncataloged Satellite

Recently launched and/or uncataloged satellites may have evolving metadata. Metadata may include but not limited to: Owner, Maufacturer, Bus, Motor, and Mission.

OBJECT R, 57181 is a satellite in SSO that was launched on Tue, 27 Jun 2023 UTC via a SOYUZ-2-1B launch vehicle from the Vostochny Cosmodrome (VOSTO). Unknown objects in Earth's orbit typically refer to objects detected orbiting the Earth but have not yet been identified or cataloged. These objects could be anything from previously untracked satellites, spent rocket stages, debris from satellite collisions, or even natural meteoroids temporarily captured by Earth's gravity.

Loading next visibility...
Identifier
57181, 2023-091R
Orbit
SSO
Country
Flag of TBDTBD
Related business
None
Manufacturer
Unknown
Mission
Operational Amateur Communications
Bus & Motor
Unknown
Mass
Unknown
Launch date (UTC)
2023-06-27 (2 years ago)
Launch vehicle
SOYUZ-2-1B
Launch site
Vostochny Cosmodrome (VOSTO)
Object type
Unknown
Shape & HBR
Box, 0.1 m
Radar Cross Section
0.035 m², Medium (>0.1 m² and < 1m²)

Expand to show TLE details & history
Last TLE update: 10 hours ago

TLE from 10 hours ago
0 OBJECT R
1 57181U 23091R   25304.88642052  .00005836  00000-0  33820-3 0  9997
2 57181  97.5425 356.7085 0015340 200.3903 159.6717 15.12479221129158
Epoch: 2025-10-31T21:16Z
TLE epoch observation values (Epoch: 2025-10-31T21:16:26.732Z)
Latitude
-0.00006°
Longitude
-2.8273°
Altitude
541.658 km
Speed
7.586 km/s
True Right ascension
23h 46m 50s
True Declination
0° 00' 00"
Sunlit
Object was in full shadow at epoch
Visualization orbit readout
Latitude
Unknown
Longitude
Unknown
Altitude
Unknown
Speed
Unknown
Apparent Right ascension
Unknown
Apparent Declination
Unknown
Sunlit
N/A
Visualization observer readout
Local Sidereal Time
02:38:24
Azimuth
Unknown
Elevation
Unknown
Doppler factor
Unknown
Orbital elements
Apogee altitude
536.214 km
Perigee altitude
515.033 km
Semi-major axis
6,903.761 km
Eccentricity
0.00153
Inclination
97.5425°
RAAN
356.7085°
Arg. of periapsis
200.3903°
True anomaly
159.73266°
Mean anomaly
159.6717°
Eccentric anomaly
159.70219°
Mean motion
3.78368 °/min
Orbital period
95.15 mins
BSTAR
0.0003382
Loading maneuver chart data...
Computing Atmospheric mass density...
Loading historical data...
Loading historical data...
Loading historical data...
Loading historical data...
Loading historical data...
Loading historical data...
Loading historical data...

Documentation

Showing up to 5 results
|